Golden Iris — 3FZK4 — position and weather

sailwx.info

Track history (hours):
 
Tides and Currents Weather Stations Pressure Air Temp Water Temp Dewpoint Dewpoint Depression Visibility Wind Speed Wind Dir Waves Ship Positions

Golden Iris

Last reported at 2014-Jul-24 20:33 UTC. Time now 2014-Jul-25 06:46 UTC.
Position N 33°12' E 034°28'.

Length 163 m; draft 6 m.

Type: Passenger vessel. MMSI: 371771000.

Date/timePositionNaut miles runAvg speedWind from/ knotsBaromVisibWave heightAir tempDewpointWater temp
2014-Jul-24 20:33N 33°12' E 034°28'10 9.8
2014-Jul-24 19:34N 33°03' E 034°33'9 9.3
2014-Jul-24 18:33N 32°57' E 034°41'13 9.9
2014-Jul-24 17:12N 32°53' E 034°56'8 0.5
2014-Jul-24 02:27N 32°54' E 034°47'1213.5
2014-Jul-24 01:32N 32°56' E 034°32'2014.1
2014-Jul-24 00:06N 33°00' E 034°09'814.6
2014-Jul-23 23:33N 33°02' E 033°60'1514.6
2014-Jul-23 22:33N 33°06' E 033°43'1514.7
2014-Jul-23 21:33N 33°11' E 033°27'1414.2
2014-Jul-23 20:33N 33°16' E 033°11'1413.9
2014-Jul-23 19:33N 33°21' E 032°55'1414.4
2014-Jul-23 18:33N 33°26' E 032°39'1414.5
2014-Jul-23 17:33N 33°31' E 032°23'1514.5
2014-Jul-23 16:33N 33°36' E 032°06'1414.5
2014-Jul-23 15:33N 33°41' E 031°50'1414.5
2014-Jul-23 14:33N 33°46' E 031°34'1414.5
2014-Jul-23 13:33N 33°51' E 031°17'1414.4
2014-Jul-23 12:33N 33°56' E 031°01'1514.8
2014-Jul-23 11:33N 34°01' E 030°44'1514.6
2014-Jul-23 10:33N 34°07' E 030°28'1414.4
2014-Jul-23 09:33N 34°11' E 030°11'1414.4
2014-Jul-23 08:33N 34°17' E 029°55'1714.6
2014-Jul-23 07:25N 34°22' E 029°36'5814.2
2014-Jul-23 03:18N 34°43' E 028°30'5514.5
2014-Jul-22 23:29N 35°02' E 027°27'3114.5
2014-Jul-22 21:20N 35°13' E 026°51'1614.2
2014-Jul-22 20:12N 35°18' E 026°32'2413.5
2014-Jul-22 18:26N 35°22' E 026°04'1314.2
2014-Jul-22 17:29N 35°14' E 025°50'2 0.2
2014-Jul-22 07:17N 35°13' E 025°48'911.1
2014-Jul-22 06:31N 35°18' E 025°56'7913.1
2014-Jul-22 00:29N 36°06' E 027°14'23310.1
2014-Jul-21 01:24N 34°38' E 031°38'1414.2
2014-Jul-21 00:25N 34°30' E 031°52'1513.8
2014-Jul-20 23:19N 34°22' E 032°07'1114.1
2014-Jul-20 22:34N 34°16' E 032°18'7114.1
2014-Jul-20 17:33N 33°38' E 033°30'80 5.4
2014-Jul-20 02:34N 32°53' E 034°50'15113.6
2014-Jul-19 15:30N 33°38' E 031°58'32514.1
2014-Jul-18 16:32N 35°53' E 025°58'1414.6
2014-Jul-18 15:33N 36°03' E 025°45'1514.4
2014-Jul-18 14:29N 36°13' E 025°31'1212.9
2014-Jul-18 13:31N 36°22' E 025°21'5 4.7
2014-Jul-18 12:30N 36°25' E 025°25'0 0.3
2014-Jul-18 11:23N 36°25' E 025°25'0 0.2
2014-Jul-18 10:30N 36°25' E 025°25'0 0.4
2014-Jul-18 09:31N 36°25' E 025°25'1 0.7
2014-Jul-18 08:33N 36°26' E 025°24'1 1.0
2014-Jul-18 07:33N 36°25' E 025°25'1 0.5
2014-Jul-18 06:30N 36°25' E 025°25'1 1.4
2014-Jul-18 05:32N 36°23' E 025°25'5 5.3
2014-Jul-18 04:33N 36°22' E 025°19'7 7.4
2014-Jul-18 03:33N 36°22' E 025°10'8 7.6
2014-Jul-18 02:33N 36°21' E 025°01'9 8.7
2014-Jul-18 01:32N 36°24' E 024°50'8 8.0
2014-Jul-18 00:31N 36°29' E 024°43'9 8.9
2014-Jul-17 23:33N 36°38' E 024°46'9 9.1
2014-Jul-17 22:33N 36°46' E 024°50'9 8.9
2014-Jul-17 21:33N 36°55' E 024°52'9 8.9
2014-Jul-17 20:33N 37°03' E 024°56'9 9.0
2014-Jul-17 19:33N 37°11' E 025°00'9 9.0
2014-Jul-17 18:33N 37°20' E 025°05'9 8.8
2014-Jul-17 17:33N 37°27' E 025°10'7 7.0
2014-Jul-17 16:31N 37°28' E 025°19'0 0.0
2014-Jul-17 15:32N 37°28' E 025°19'0 0.0
2014-Jul-17 14:31N 37°28' E 025°19'0 0.0
2014-Jul-17 13:31N 37°28' E 025°19'0 0.0
2014-Jul-17 12:32N 37°28' E 025°19'0 0.0
2014-Jul-17 11:31N 37°28' E 025°19'0 0.0
2014-Jul-17 10:31N 37°28' E 025°19'0 0.0
2014-Jul-17 09:32N 37°28' E 025°19'0 0.0
2014-Jul-17 08:31N 37°28' E 025°19'0 0.0
2014-Jul-17 07:28N 37°28' E 025°19'0 0.0
2014-Jul-17 06:31N 37°28' E 025°19'3 3.5
2014-Jul-17 05:33N 37°28' E 025°15'1514.9
2014-Jul-17 04:33N 37°35' E 024°58'27 0.9
2014-Jul-15 21:29N 37°53' E 024°33'4113.9
2014-Jul-15 18:33N 37°40' E 023°44'1514.9
2014-Jul-15 17:33N 37°53' E 023°37'3 2.7
2014-Jul-15 16:33N 37°56' E 023°37'0 0.0
2014-Jul-15 15:33N 37°56' E 023°37'0 0.0
2014-Jul-15 14:33N 37°56' E 023°37'0 0.0
2014-Jul-15 13:33N 37°56' E 023°37'0 0.0
2014-Jul-15 12:33N 37°56' E 023°37'0 0.0
2014-Jul-15 11:33N 37°56' E 023°37'0 0.0
2014-Jul-15 10:33N 37°56' E 023°37'1 0.7
2014-Jul-15 09:33N 37°56' E 023°37'1212.5
2014-Jul-15 08:33N 37°44' E 023°44'6314.7
2014-Jul-15 04:17N 36°56' E 024°35'1114.8
2014-Jul-15 03:33N 36°52' E 024°47'1515.1
2014-Jul-15 02:33N 36°50' E 025°06'1514.9
2014-Jul-15 01:33N 36°47' E 025°24'1515.0
2014-Jul-15 00:33N 36°40' E 025°41'1414.3
2014-Jul-14 23:33N 36°33' E 025°56'1514.8
2014-Jul-14 22:33N 36°25' E 026°12'1514.5
2014-Jul-14 21:33N 36°18' E 026°28'  
Track history (hours):
 
Tides and Currents Weather Stations Pressure Air Temp Water Temp Dewpoint Dewpoint Depression Visibility Wind Speed Wind Dir Waves Ship Positions

Golden Iris

Last reported at 2014-Jul-24 20:33 UTC. Time now 2014-Jul-25 06:46 UTC.
Position N 33°12' E 034°28'.

Length 163 m; draft 6 m.

Type: Passenger vessel. MMSI: 371771000.

Date/timePositionNaut miles runAvg speedWind from/ knotsBaromVisibWave heightAir tempDewpointWater temp
2014-Jul-24 20:33N 33°12' E 034°28'10 9.8
2014-Jul-24 19:34N 33°03' E 034°33'9 9.3
2014-Jul-24 18:33N 32°57' E 034°41'13 9.9
2014-Jul-24 17:12N 32°53' E 034°56'8 0.5
2014-Jul-24 02:27N 32°54' E 034°47'1213.5
2014-Jul-24 01:32N 32°56' E 034°32'2014.1
2014-Jul-24 00:06N 33°00' E 034°09'814.6
2014-Jul-23 23:33N 33°02' E 033°60'1514.6
2014-Jul-23 22:33N 33°06' E 033°43'1514.7
2014-Jul-23 21:33N 33°11' E 033°27'1414.2
2014-Jul-23 20:33N 33°16' E 033°11'1413.9
2014-Jul-23 19:33N 33°21' E 032°55'1414.4
2014-Jul-23 18:33N 33°26' E 032°39'1414.5
2014-Jul-23 17:33N 33°31' E 032°23'1514.5
2014-Jul-23 16:33N 33°36' E 032°06'1414.5
2014-Jul-23 15:33N 33°41' E 031°50'1414.5
2014-Jul-23 14:33N 33°46' E 031°34'1414.5
2014-Jul-23 13:33N 33°51' E 031°17'1414.4
2014-Jul-23 12:33N 33°56' E 031°01'1514.8
2014-Jul-23 11:33N 34°01' E 030°44'1514.6
2014-Jul-23 10:33N 34°07' E 030°28'1414.4
2014-Jul-23 09:33N 34°11' E 030°11'1414.4
2014-Jul-23 08:33N 34°17' E 029°55'1714.6
2014-Jul-23 07:25N 34°22' E 029°36'5814.2
2014-Jul-23 03:18N 34°43' E 028°30'5514.5
2014-Jul-22 23:29N 35°02' E 027°27'3114.5
2014-Jul-22 21:20N 35°13' E 026°51'1614.2
2014-Jul-22 20:12N 35°18' E 026°32'2413.5
2014-Jul-22 18:26N 35°22' E 026°04'1314.2
2014-Jul-22 17:29N 35°14' E 025°50'2 0.2
2014-Jul-22 07:17N 35°13' E 025°48'911.1
2014-Jul-22 06:31N 35°18' E 025°56'7913.1
2014-Jul-22 00:29N 36°06' E 027°14'23310.1
2014-Jul-21 01:24N 34°38' E 031°38'1414.2
2014-Jul-21 00:25N 34°30' E 031°52'1513.8
2014-Jul-20 23:19N 34°22' E 032°07'1114.1
2014-Jul-20 22:34N 34°16' E 032°18'7114.1
2014-Jul-20 17:33N 33°38' E 033°30'80 5.4
2014-Jul-20 02:34N 32°53' E 034°50'15113.6
2014-Jul-19 15:30N 33°38' E 031°58'32514.1
2014-Jul-18 16:32N 35°53' E 025°58'1414.6
2014-Jul-18 15:33N 36°03' E 025°45'1514.4
2014-Jul-18 14:29N 36°13' E 025°31'1212.9
2014-Jul-18 13:31N 36°22' E 025°21'5 4.7
2014-Jul-18 12:30N 36°25' E 025°25'0 0.3
2014-Jul-18 11:23N 36°25' E 025°25'0 0.2
2014-Jul-18 10:30N 36°25' E 025°25'0 0.4
2014-Jul-18 09:31N 36°25' E 025°25'1 0.7
2014-Jul-18 08:33N 36°26' E 025°24'1 1.0
2014-Jul-18 07:33N 36°25' E 025°25'1 0.5
2014-Jul-18 06:30N 36°25' E 025°25'1 1.4
2014-Jul-18 05:32N 36°23' E 025°25'5 5.3
2014-Jul-18 04:33N 36°22' E 025°19'7 7.4
2014-Jul-18 03:33N 36°22' E 025°10'8 7.6
2014-Jul-18 02:33N 36°21' E 025°01'9 8.7
2014-Jul-18 01:32N 36°24' E 024°50'8 8.0
2014-Jul-18 00:31N 36°29' E 024°43'9 8.9
2014-Jul-17 23:33N 36°38' E 024°46'9 9.1
2014-Jul-17 22:33N 36°46' E 024°50'9 8.9
2014-Jul-17 21:33N 36°55' E 024°52'9 8.9
2014-Jul-17 20:33N 37°03' E 024°56'9 9.0
2014-Jul-17 19:33N 37°11' E 025°00'9 9.0
2014-Jul-17 18:33N 37°20' E 025°05'9 8.8
2014-Jul-17 17:33N 37°27' E 025°10'7 7.0
2014-Jul-17 16:31N 37°28' E 025°19'0 0.0
2014-Jul-17 15:32N 37°28' E 025°19'0 0.0
2014-Jul-17 14:31N 37°28' E 025°19'0 0.0
2014-Jul-17 13:31N 37°28' E 025°19'0 0.0
2014-Jul-17 12:32N 37°28' E 025°19'0 0.0
2014-Jul-17 11:31N 37°28' E 025°19'0 0.0
2014-Jul-17 10:31N 37°28' E 025°19'0 0.0
2014-Jul-17 09:32N 37°28' E 025°19'0 0.0
2014-Jul-17 08:31N 37°28' E 025°19'0 0.0
2014-Jul-17 07:28N 37°28' E 025°19'0 0.0
2014-Jul-17 06:31N 37°28' E 025°19'3 3.5
2014-Jul-17 05:33N 37°28' E 025°15'1514.9
2014-Jul-17 04:33N 37°35' E 024°58'27 0.9
2014-Jul-15 21:29N 37°53' E 024°33'4113.9
2014-Jul-15 18:33N 37°40' E 023°44'1514.9
2014-Jul-15 17:33N 37°53' E 023°37'3 2.7
2014-Jul-15 16:33N 37°56' E 023°37'0 0.0
2014-Jul-15 15:33N 37°56' E 023°37'0 0.0
2014-Jul-15 14:33N 37°56' E 023°37'0 0.0
2014-Jul-15 13:33N 37°56' E 023°37'0 0.0
2014-Jul-15 12:33N 37°56' E 023°37'0 0.0
2014-Jul-15 11:33N 37°56' E 023°37'0 0.0
2014-Jul-15 10:33N 37°56' E 023°37'1 0.7
2014-Jul-15 09:33N 37°56' E 023°37'1212.5
2014-Jul-15 08:33N 37°44' E 023°44'6314.7
2014-Jul-15 04:17N 36°56' E 024°35'1114.8
2014-Jul-15 03:33N 36°52' E 024°47'1515.1
2014-Jul-15 02:33N 36°50' E 025°06'1514.9
2014-Jul-15 01:33N 36°47' E 025°24'1515.0
2014-Jul-15 00:33N 36°40' E 025°41'1414.3
2014-Jul-14 23:33N 36°33' E 025°56'1514.8
2014-Jul-14 22:33N 36°25' E 026°12'1514.5
2014-Jul-14 21:33N 36°18' E 026°28'  

Dump ship's entire track history